Time,TemperatureF,DewpointF,PressureIn,WindDirection,WindDirectionDegrees,WindSpeedMPH,WindSpeedGustMPH,Humidity,HourlyPrecipIn,Conditions,Clouds,dailyrainin,SoftwareType,DateUTC
2018-01-22 00:03:00,26.3,15.0,30.34,WNW,293,9.0,-999.0,63,0.00,,,0.00,,2018-01-22 07:03:00,
2018-01-22 00:08:00,26.3,15.0,30.34,NW,315,5.0,-999.0,63,0.00,,,0.00,,2018-01-22 07:08:00,
2018-01-22 00:14:00,26.2,15.0,30.33,West,270,3.0,-999.0,63,0.00,,,0.00,,2018-01-22 07:14:00,
2018-01-22 00:20:00,26.1,15.0,30.34,NW,315,5.0,-999.0,63,0.00,,,0.00,,2018-01-22 07:20:00,
2018-01-22 00:25:00,26.1,15.0,30.34,West,270,7.0,-999.0,63,0.00,,,0.00,,2018-01-22 07:25:00,
2018-01-22 00:30:00,26.1,15.0,30.34,SW,225,8.0,-999.0,63,0.00,,,0.00,,2018-01-22 07:30:00,
2018-01-22 00:41:00,26.1,15.0,30.33,North,0,5.0,-999.0,63,0.00,,,0.00,,2018-01-22 07:41:00,
2018-01-22 00:47:00,26.1,15.0,30.34,NNW,338,8.0,-999.0,63,0.00,,,0.00,,2018-01-22 07:47:00,
2018-01-22 00:52:00,25.7,15.0,30.34,NNW,338,4.0,-999.0,63,0.00,,,0.00,,2018-01-22 07:52:00,
2018-01-22 01:03:00,25.1,15.0,30.34,WSW,248,6.0,-999.0,65,0.00,,,0.00,,2018-01-22 08:03:00,
2018-01-22 01:08:00,25.4,15.0,30.34,SW,225,5.0,-999.0,63,0.00,,,0.00,,2018-01-22 08:08:00,
2018-01-22 01:13:00,25.2,14.0,30.34,North,0,4.0,-999.0,63,0.00,,,0.00,,2018-01-22 08:13:00,
2018-01-22 01:19:00,25.0,14.0,30.35,SW,225,3.0,-999.0,63,0.00,,,0.00,,2018-01-22 08:19:00,
2018-01-22 01:30:00,24.4,14.0,30.36,SW,225,2.0,-999.0,65,0.00,,,0.00,,2018-01-22 08:30:00,
2018-01-22 01:35:00,24.1,14.0,30.36,North,0,3.0,-999.0,65,0.00,,,0.00,,2018-01-22 08:35:00,
2018-01-22 01:41:00,24.1,14.0,30.36,South,180,4.0,-999.0,65,0.00,,,0.00,,2018-01-22 08:41:00,
2018-01-22 01:46:00,24.4,14.0,30.36,NNW,338,3.0,-999.0,65,0.00,,,0.00,,2018-01-22 08:46:00,
2018-01-22 01:57:00,24.2,14.0,30.36,West,270,9.0,-999.0,65,0.00,,,0.00,,2018-01-22 08:57:00,
2018-01-22 02:02:00,24.4,14.0,30.37,SW,225,2.0,-999.0,65,0.00,,,0.00,,2018-01-22 09:02:00,
2018-01-22 02:08:00,24.2,14.0,30.37,West,270,4.0,-999.0,65,0.00,,,0.00,,2018-01-22 09:08:00,
2018-01-22 02:13:00,24.2,14.0,30.36,SW,225,9.0,-999.0,65,0.00,,,0.00,,2018-01-22 09:13:00,
2018-01-22 02:18:00,24.4,14.0,30.36,WSW,248,2.0,-999.0,65,0.00,,,0.00,,2018-01-22 09:18:00,
2018-01-22 02:24:00,24.8,13.0,30.36,NNE,23,6.0,-999.0,63,0.00,,,0.00,,2018-01-22 09:24:00,
2018-01-22 02:29:00,25.0,14.0,30.37,NW,315,5.0,-999.0,63,0.00,,,0.00,,2018-01-22 09:29:00,
2018-01-22 02:35:00,24.8,13.0,30.37,NW,315,5.0,-999.0,63,0.00,,,0.00,,2018-01-22 09:35:00,
2018-01-22 02:45:00,25.0,14.0,30.37,NNW,338,4.0,-999.0,63,0.00,,,0.00,,2018-01-22 09:45:00,
2018-01-22 02:51:00,25.1,14.0,30.37,ENE,68,8.0,-999.0,63,0.00,,,0.00,,2018-01-22 09:51:00,
2018-01-22 02:56:00,25.1,14.0,30.37,NNW,338,7.0,-999.0,63,0.00,,,0.00,,2018-01-22 09:56:00,
2018-01-22 03:02:00,25.0,14.0,30.38,NNW,338,9.0,-999.0,63,0.00,,,0.00,,2018-01-22 10:02:00,
2018-01-22 03:07:00,24.8,13.0,30.39,NW,315,7.0,-999.0,63,0.00,,,0.00,,2018-01-22 10:07:00,
2018-01-22 03:12:00,24.8,13.0,30.38,NW,315,8.0,-999.0,63,0.00,,,0.00,,2018-01-22 10:12:00,
2018-01-22 03:18:00,24.6,13.0,30.38,NW,315,12.0,-999.0,63,0.00,,,0.00,,2018-01-22 10:18:00,
2018-01-22 03:23:00,24.6,13.0,30.38,NNW,338,9.0,-999.0,63,0.00,,,0.00,,2018-01-22 10:23:00,
2018-01-22 03:29:00,24.6,13.0,30.38,WNW,293,3.0,-999.0,63,0.00,,,0.00,,2018-01-22 10:29:00,
2018-01-22 03:34:00,24.6,13.0,30.38,NNW,338,6.0,-999.0,63,0.00,,,0.00,,2018-01-22 10:34:00,
2018-01-22 03:50:00,24.2,13.0,30.39,NNW,338,5.0,-999.0,63,0.00,,,0.00,,2018-01-22 10:50:00,
2018-01-22 03:56:00,24.1,13.0,30.39,NNW,338,6.0,-999.0,63,0.00,,,0.00,,2018-01-22 10:56:00,
2018-01-22 04:01:00,24.1,13.0,30.40,North,0,4.0,-999.0,63,0.00,,,0.00,,2018-01-22 11:01:00,
2018-01-22 04:12:00,23.7,13.0,30.39,NNW,338,11.0,-999.0,65,0.00,,,0.00,,2018-01-22 11:12:00,
2018-01-22 04:23:00,23.7,13.0,30.39,NNW,338,8.0,-999.0,65,0.00,,,0.00,,2018-01-22 11:23:00,
2018-01-22 04:44:00,22.9,13.0,30.40,NW,315,7.0,-999.0,66,0.00,,,0.00,,2018-01-22 11:44:00,
2018-01-22 04:50:00,22.7,13.0,30.40,NNW,338,8.0,-999.0,66,0.00,,,0.00,,2018-01-22 11:50:00,
2018-01-22 04:55:00,22.9,13.0,30.40,NNW,338,5.0,-999.0,66,0.00,,,0.00,,2018-01-22 11:55:00,
2018-01-22 05:06:00,22.5,13.0,30.40,WNW,293,9.0,-999.0,66,0.00,,,0.00,,2018-01-22 12:06:00,
2018-01-22 05:11:00,22.5,13.0,30.40,WNW,293,6.0,-999.0,66,0.00,,,0.00,,2018-01-22 12:11:00,
2018-01-22 05:16:00,22.5,13.0,30.40,West,270,6.0,-999.0,66,0.00,,,0.00,,2018-01-22 12:16:00,
2018-01-22 05:22:00,22.7,13.0,30.39,NW,315,4.0,-999.0,66,0.00,,,0.00,,2018-01-22 12:22:00,
2018-01-22 05:27:00,22.5,13.0,30.40,North,0,8.0,-999.0,66,0.00,,,0.00,,2018-01-22 12:27:00,
2018-01-22 05:33:00,22.5,13.0,30.41,North,0,6.0,-999.0,66,0.00,,,0.00,,2018-01-22 12:33:00,
2018-01-22 05:49:00,23.2,13.0,30.41,NNE,23,9.0,-999.0,65,0.00,,,0.00,,2018-01-22 12:49:00,
2018-01-22 05:54:00,23.3,13.0,30.41,NE,45,12.0,-999.0,65,0.00,,,0.00,,2018-01-22 12:54:00,
2018-01-22 05:59:00,23.4,13.0,30.41,NNW,338,8.0,-999.0,65,0.00,,,0.00,,2018-01-22 12:59:00,
2018-01-22 06:05:00,23.4,13.0,30.41,NNW,338,7.0,-999.0,63,0.00,,,0.00,,2018-01-22 13:05:00,
2018-01-22 06:10:00,23.4,13.0,30.41,West,270,10.0,-999.0,63,0.00,,,0.00,,2018-01-22 13:10:00,
2018-01-22 06:22:00,22.9,12.0,30.42,NW,315,10.0,-999.0,65,0.00,,,0.00,,2018-01-22 13:22:00,
2018-01-22 06:27:00,22.7,12.0,30.42,West,270,2.0,-999.0,65,0.00,,,0.00,,2018-01-22 13:27:00,
2018-01-22 06:33:00,22.7,12.0,30.43,NNW,338,8.0,-999.0,65,0.00,,,0.00,,2018-01-22 13:33:00,
2018-01-22 06:38:00,22.7,12.0,30.43,NW,315,10.0,-999.0,65,0.00,,,0.00,,2018-01-22 13:38:00,
2018-01-22 06:44:00,22.7,13.0,30.43,West,270,8.0,-999.0,65,0.00,,,0.00,,2018-01-22 13:44:00,
2018-01-22 06:55:00,22.5,12.0,30.43,North,0,14.0,-999.0,65,0.00,,,0.00,,2018-01-22 13:55:00,
2018-01-22 07:01:00,22.5,12.0,30.43,NW,315,11.0,-999.0,65,0.00,,,0.00,,2018-01-22 14:01:00,
2018-01-22 07:06:00,22.5,12.0,30.44,NNW,338,10.0,-999.0,65,0.00,,,0.00,,2018-01-22 14:06:00,
2018-01-22 07:11:00,22.3,12.0,30.44,NNE,23,10.0,-999.0,66,0.00,,,0.00,,2018-01-22 14:11:00,
2018-01-22 07:17:00,22.1,12.0,30.43,WNW,293,13.0,-999.0,66,0.00,,,0.00,,2018-01-22 14:17:00,
2018-01-22 07:28:00,22.1,12.0,30.43,NW,315,8.0,-999.0,66,0.00,,,0.00,,2018-01-22 14:28:00,
2018-01-22 07:33:00,22.1,12.0,30.44,NNE,23,10.0,-999.0,66,0.00,,,0.00,,2018-01-22 14:33:00,
2018-01-22 07:38:00,22.1,12.0,30.44,West,270,3.0,-999.0,66,0.00,,,0.00,,2018-01-22 14:38:00,
2018-01-22 07:43:00,22.3,12.0,30.45,West,270,9.0,-999.0,66,0.00,,,0.00,,2018-01-22 14:43:00,
2018-01-22 07:54:00,22.5,13.0,30.46,SSW,203,6.0,-999.0,66,0.00,,,0.00,,2018-01-22 14:54:00,
2018-01-22 08:00:00,22.5,13.0,30.45,WNW,293,3.0,-999.0,66,0.00,,,0.00,,2018-01-22 15:00:00,
2018-01-22 08:05:00,22.5,13.0,30.46,West,270,6.0,-999.0,66,0.00,,,0.00,,2018-01-22 15:05:00,
2018-01-22 08:10:00,22.5,13.0,30.46,WNW,293,5.0,-999.0,66,0.00,,,0.00,,2018-01-22 15:10:00,
2018-01-22 08:16:00,22.5,13.0,30.47,WNW,293,4.0,-999.0,66,0.00,,,0.00,,2018-01-22 15:16:00,
2018-01-22 08:21:00,22.7,13.0,30.47,NNW,338,5.0,-999.0,66,0.00,,,0.00,,2018-01-22 15:21:00,
2018-01-22 08:26:00,22.9,13.0,30.48,North,0,3.0,-999.0,65,0.00,,,0.00,,2018-01-22 15:26:00,
2018-01-22 08:32:00,23.2,13.0,30.47,NNW,338,4.0,-999.0,65,0.00,,,0.00,,2018-01-22 15:32:00,
2018-01-22 08:37:00,23.4,13.0,30.47,SW,225,5.0,-999.0,65,0.00,,,0.00,,2018-01-22 15:37:00,
2018-01-22 08:43:00,24.4,13.0,30.47,West,270,3.0,-999.0,63,0.00,,,0.00,,2018-01-22 15:43:00,
2018-01-22 08:48:00,25.9,14.0,30.47,West,270,3.0,-999.0,61,0.00,,,0.00,,2018-01-22 15:48:00,
2018-01-22 08:53:00,25.4,13.0,30.46,NW,315,2.0,-999.0,61,0.00,,,0.00,,2018-01-22 15:53:00,
2018-01-22 08:59:00,25.7,14.0,30.48,NNW,338,6.0,-999.0,61,0.00,,,0.00,,2018-01-22 15:59:00,
2018-01-22 09:04:00,26.6,14.0,30.48,NNE,23,4.0,-999.0,60,0.00,,,0.00,,2018-01-22 16:04:00,
2018-01-22 09:10:00,27.0,14.0,30.49,NNW,338,3.0,-999.0,59,0.00,,,0.00,,2018-01-22 16:10:00,
2018-01-22 09:15:00,27.1,14.0,30.49,WSW,248,4.0,-999.0,59,0.00,,,0.00,,2018-01-22 16:15:00,
2018-01-22 09:20:00,27.6,15.0,30.49,WNW,293,3.0,-999.0,59,0.00,,,0.00,,2018-01-22 16:20:00,
2018-01-22 09:26:00,27.8,15.0,30.49,WNW,293,2.0,-999.0,58,0.00,,,0.00,,2018-01-22 16:26:00,
2018-01-22 09:31:00,27.6,14.0,30.49,WNW,293,3.0,-999.0,58,0.00,,,0.00,,2018-01-22 16:31:00,
2018-01-22 09:37:00,27.9,15.0,30.50,WNW,293,6.0,-999.0,58,0.00,,,0.00,,2018-01-22 16:37:00,
2018-01-22 09:42:00,28.2,15.0,30.50,West,270,6.0,-999.0,58,0.00,,,0.00,,2018-01-22 16:42:00,
2018-01-22 09:47:00,28.6,15.0,30.50,NE,45,4.0,-999.0,58,0.00,,,0.00,,2018-01-22 16:47:00,
2018-01-22 09:53:00,28.8,15.0,30.50,WNW,293,6.0,-999.0,55,0.00,,,0.00,,2018-01-22 16:53:00,
2018-01-22 09:59:00,28.8,15.0,30.50,SW,225,5.0,-999.0,56,0.00,,,0.00,,2018-01-22 16:59:00,
2018-01-22 10:04:00,29.1,15.0,30.50,West,270,6.0,-999.0,55,0.00,,,0.00,,2018-01-22 17:04:00,
2018-01-22 10:10:00,29.2,15.0,30.50,West,270,3.0,-999.0,55,0.00,,,0.00,,2018-01-22 17:10:00,
2018-01-22 10:15:00,29.8,15.0,30.50,WNW,293,4.0,-999.0,55,0.00,,,0.00,,2018-01-22 17:15:00,
2018-01-22 10:20:00,30.0,15.0,30.50,NW,315,4.0,-999.0,54,0.00,,,0.00,,2018-01-22 17:20:00,
2018-01-22 10:26:00,30.1,15.0,30.51,SSW,203,5.0,-999.0,54,0.00,,,0.00,,2018-01-22 17:26:00,
2018-01-22 10:31:00,30.8,16.0,30.50,SE,135,4.0,-999.0,54,0.00,,,0.00,,2018-01-22 17:31:00,
2018-01-22 10:37:00,31.9,16.0,30.50,NNE,23,4.0,-999.0,53,0.00,,,0.00,,2018-01-22 17:37:00,
2018-01-22 10:42:00,31.5,16.0,30.50,WSW,248,5.0,-999.0,54,0.00,,,0.00,,2018-01-22 17:42:00,
2018-01-22 10:47:00,31.6,16.0,30.50,SW,225,9.0,-999.0,53,0.00,,,0.00,,2018-01-22 17:47:00,
2018-01-22 10:53:00,30.8,15.0,30.50,SW,225,6.0,-999.0,51,0.00,,,0.00,,2018-01-22 17:53:00,
2018-01-22 10:58:00,31.7,15.0,30.50,WNW,293,4.0,-999.0,50,0.00,,,0.00,,2018-01-22 17:58:00,
2018-01-22 11:04:00,31.9,15.0,30.50,West,270,5.0,-999.0,50,0.00,,,0.00,,2018-01-22 18:04:00,
2018-01-22 11:09:00,32.5,16.0,30.50,NNW,338,5.0,-999.0,50,0.00,,,0.00,,2018-01-22 18:09:00,
2018-01-22 11:14:00,32.2,16.0,30.50,SW,225,6.0,-999.0,51,0.00,,,0.00,,2018-01-22 18:14:00,
2018-01-22 11:20:00,32.6,16.0,30.50,WNW,293,7.0,-999.0,50,0.00,,,0.00,,2018-01-22 18:20:00,
2018-01-22 11:25:00,32.5,16.0,30.49,WSW,248,4.0,-999.0,50,0.00,,,0.00,,2018-01-22 18:25:00,
2018-01-22 11:31:00,32.9,16.0,30.49,NNW,338,3.0,-999.0,50,0.00,,,0.00,,2018-01-22 18:31:00,
2018-01-22 11:36:00,33.0,16.0,30.49,NNE,23,4.0,-999.0,50,0.00,,,0.00,,2018-01-22 18:36:00,
2018-01-22 11:41:00,32.5,16.0,30.49,West,270,3.0,-999.0,50,0.00,,,0.00,,2018-01-22 18:41:00,
2018-01-22 11:47:00,32.4,16.0,30.49,West,270,4.0,-999.0,50,0.00,,,0.00,,2018-01-22 18:47:00,
2018-01-22 11:52:00,34.0,17.0,30.49,WNW,293,3.0,-999.0,50,0.00,,,0.00,,2018-01-22 18:52:00,
2018-01-22 11:58:00,33.5,16.0,30.48,NNW,338,4.0,-999.0,50,0.00,,,0.00,,2018-01-22 18:58:00,
2018-01-22 12:03:00,33.8,18.0,30.49,South,180,3.0,-999.0,51,0.00,,,0.00,,2018-01-22 19:03:00,
2018-01-22 12:08:00,33.0,15.0,30.48,North,0,3.0,-999.0,49,0.00,,,0.00,,2018-01-22 19:08:00,
2018-01-22 12:14:00,34.5,18.0,30.47,ESE,113,2.0,-999.0,50,0.00,,,0.00,,2018-01-22 19:14:00,
2018-01-22 12:19:00,33.8,17.0,30.47,NNW,338,6.0,-999.0,50,0.00,,,0.00,,2018-01-22 19:19:00,
2018-01-22 12:25:00,35.0,18.0,30.48,South,180,2.0,-999.0,50,0.00,,,0.00,,2018-01-22 19:25:00,
2018-01-22 12:30:00,34.7,17.0,30.47,West,270,4.0,-999.0,50,0.00,,,0.00,,2018-01-22 19:30:00,
2018-01-22 12:35:00,34.0,17.0,30.47,WNW,293,3.0,-999.0,50,0.00,,,0.00,,2018-01-22 19:35:00,
2018-01-22 12:41:00,34.7,17.0,30.47,West,270,3.0,-999.0,50,0.00,,,0.00,,2018-01-22 19:41:00,
2018-01-22 12:46:00,35.5,18.0,30.46,West,270,3.0,-999.0,50,0.00,,,0.00,,2018-01-22 19:46:00,
2018-01-22 12:52:00,35.0,17.0,30.47,West,270,3.0,-999.0,48,0.00,,,0.00,,2018-01-22 19:52:00,
2018-01-22 12:57:00,35.4,17.0,30.46,NNW,338,5.0,-999.0,46,0.00,,,0.00,,2018-01-22 19:57:00,
2018-01-22 13:02:00,35.1,16.0,30.46,NNW,338,4.0,-999.0,45,0.00,,,0.00,,2018-01-22 20:02:00,
2018-01-22 13:08:00,34.7,16.0,30.45,NE,45,3.0,-999.0,46,0.00,,,0.00,,2018-01-22 20:08:00,
2018-01-22 13:13:00,35.0,16.0,30.45,NNE,23,5.0,-999.0,46,0.00,,,0.00,,2018-01-22 20:13:00,
2018-01-22 13:19:00,35.1,16.0,30.45,NE,45,3.0,-999.0,45,0.00,,,0.00,,2018-01-22 20:19:00,
2018-01-22 13:24:00,36.1,17.0,30.45,North,0,3.0,-999.0,46,0.01,,,0.01,,2018-01-22 20:24:00,
2018-01-22 13:29:00,36.1,17.0,30.45,NNE,23,2.0,-999.0,45,0.01,,,0.01,,2018-01-22 20:29:00,
2018-01-22 13:35:00,37.0,18.0,30.45,West,270,2.0,-999.0,45,0.01,,,0.01,,2018-01-22 20:35:00,
2018-01-22 13:40:00,36.2,18.0,30.45,WNW,293,5.0,-999.0,48,0.01,,,0.01,,2018-01-22 20:40:00,
2018-01-22 13:45:00,36.7,16.0,30.44,WSW,248,4.0,-999.0,44,0.01,,,0.01,,2018-01-22 20:45:00,
2018-01-22 13:51:00,37.2,17.0,30.44,NW,315,5.0,-999.0,45,0.01,,,0.01,,2018-01-22 20:51:00,
2018-01-22 13:56:00,37.2,17.0,30.44,West,270,3.0,-999.0,44,0.01,,,0.01,,2018-01-22 20:56:00,
2018-01-22 14:02:00,37.2,16.0,30.43,West,270,4.0,-999.0,43,0.00,,,0.01,,2018-01-22 21:02:00,
2018-01-22 14:07:00,38.7,18.0,30.44,West,270,4.0,-999.0,43,0.00,,,0.01,,2018-01-22 21:07:00,
2018-01-22 14:12:00,37.5,17.0,30.44,North,0,3.0,-999.0,44,0.00,,,0.01,,2018-01-22 21:12:00,
2018-01-22 14:18:00,37.7,17.0,30.43,WSW,248,5.0,-999.0,44,0.00,,,0.01,,2018-01-22 21:18:00,
2018-01-22 14:23:00,38.0,17.0,30.43,NNW,338,4.0,-999.0,43,0.00,,,0.01,,2018-01-22 21:23:00,
2018-01-22 14:29:00,38.4,18.0,30.43,WSW,248,5.0,-999.0,44,0.00,,,0.01,,2018-01-22 21:29:00,
2018-01-22 14:34:00,38.0,17.0,30.43,NNW,338,4.0,-999.0,41,0.00,,,0.01,,2018-01-22 21:34:00,
2018-01-22 14:39:00,38.0,17.0,30.43,NE,45,5.0,-999.0,41,0.00,,,0.01,,2018-01-22 21:39:00,
2018-01-22 14:45:00,38.7,18.0,30.43,NW,315,4.0,-999.0,43,0.00,,,0.01,,2018-01-22 21:45:00,
2018-01-22 14:50:00,39.4,18.0,30.43,WNW,293,4.0,-999.0,41,0.00,,,0.01,,2018-01-22 21:50:00,
2018-01-22 14:56:00,39.4,18.0,30.43,WNW,293,2.0,-999.0,43,0.00,,,0.01,,2018-01-22 21:56:00,
2018-01-22 15:01:00,39.9,18.0,30.43,West,270,5.0,-999.0,41,0.00,,,0.01,,2018-01-22 22:01:00,
2018-01-22 15:06:00,40.0,19.0,30.43,West,270,5.0,-999.0,43,0.00,,,0.01,,2018-01-22 22:06:00,
2018-01-22 15:12:00,39.9,18.0,30.43,NNE,23,2.0,-999.0,40,0.00,,,0.01,,2018-01-22 22:12:00,
2018-01-22 15:17:00,39.4,17.0,30.43,North,0,5.0,-999.0,40,0.00,,,0.01,,2018-01-22 22:17:00,
2018-01-22 15:22:00,40.9,19.0,30.43,NNE,23,1.0,-999.0,41,0.00,,,0.01,,2018-01-22 22:22:00,
2018-01-22 15:28:00,40.5,18.0,30.43,WNW,293,3.0,-999.0,40,0.00,,,0.01,,2018-01-22 22:28:00,
2018-01-22 15:33:00,40.7,17.0,30.43,West,270,4.0,-999.0,39,0.00,,,0.01,,2018-01-22 22:33:00,
2018-01-22 15:38:00,40.9,17.0,30.43,NNW,338,3.0,-999.0,39,0.00,,,0.01,,2018-01-22 22:38:00,
2018-01-22 15:44:00,40.5,18.0,30.43,South,180,3.0,-999.0,40,0.00,,,0.01,,2018-01-22 22:44:00,
2018-01-22 15:50:00,40.0,17.0,30.43,NNE,23,2.0,-999.0,39,0.00,,,0.01,,2018-01-22 22:50:00,
2018-01-22 15:55:00,39.9,17.0,30.43,NNE,23,3.0,-999.0,40,0.00,,,0.01,,2018-01-22 22:55:00,
2018-01-22 16:01:00,41.1,18.0,30.43,NNE,23,4.0,-999.0,39,0.00,,,0.01,,2018-01-22 23:01:00,
2018-01-22 16:06:00,41.4,17.0,30.43,ENE,68,4.0,-999.0,37,0.00,,,0.01,,2018-01-22 23:06:00,
2018-01-22 16:11:00,41.1,17.0,30.43,NNW,338,2.0,-999.0,37,0.00,,,0.01,,2018-01-22 23:11:00,
2018-01-22 16:17:00,40.9,17.0,30.44,North,0,2.0,-999.0,37,0.00,,,0.01,,2018-01-22 23:17:00,
2018-01-22 16:22:00,41.1,18.0,30.44,NE,45,2.0,-999.0,39,0.00,,,0.01,,2018-01-22 23:22:00,
2018-01-22 16:28:00,40.7,17.0,30.44,WNW,293,4.0,-999.0,37,0.00,,,0.01,,2018-01-22 23:28:00,
2018-01-22 16:33:00,40.2,17.0,30.44,NNE,23,4.0,-999.0,39,0.00,,,0.01,,2018-01-22 23:33:00,
2018-01-22 16:38:00,39.7,16.0,30.44,NE,45,4.0,-999.0,37,0.00,,,0.01,,2018-01-22 23:38:00,
2018-01-22 16:44:00,39.5,16.0,30.44,NW,315,3.0,-999.0,39,0.00,,,0.01,,2018-01-22 23:44:00,
2018-01-22 16:49:00,39.5,16.0,30.44,ENE,68,3.0,-999.0,39,0.00,,,0.01,,2018-01-22 23:49:00,
2018-01-22 16:55:00,39.0,16.0,30.44,North,0,2.0,-999.0,39,0.00,,,0.01,,2018-01-22 23:55:00,
2018-01-22 17:00:00,38.7,15.0,30.44,West,270,2.0,-999.0,37,0.00,,,0.01,,2018-01-23 00:00:00,
2018-01-22 17:05:00,39.4,15.0,30.44,WNW,293,2.0,-999.0,37,0.00,,,0.01,,2018-01-23 00:05:00,
2018-01-22 17:11:00,39.4,16.0,30.44,WSW,248,1.0,-999.0,39,0.00,,,0.01,,2018-01-23 00:11:00,
2018-01-22 17:16:00,38.4,15.0,30.45,NNW,338,3.0,-999.0,39,0.00,,,0.01,,2018-01-23 00:16:00,
2018-01-22 17:22:00,37.7,15.0,30.45,NNW,338,5.0,-999.0,40,0.00,,,0.01,,2018-01-23 00:22:00,
2018-01-22 17:27:00,36.9,14.0,30.45,WNW,293,4.0,-999.0,40,0.00,,,0.01,,2018-01-23 00:27:00,
2018-01-22 17:32:00,36.2,14.0,30.45,WNW,293,6.0,-999.0,40,0.00,,,0.01,,2018-01-23 00:32:00,
2018-01-22 17:38:00,35.9,14.0,30.45,NNW,338,2.0,-999.0,40,0.00,,,0.01,,2018-01-23 00:38:00,
2018-01-22 17:43:00,35.5,14.0,30.45,West,270,2.0,-999.0,40,0.00,,,0.01,,2018-01-23 00:43:00,
2018-01-22 17:49:00,35.0,14.0,30.45,WNW,293,1.0,-999.0,41,0.00,,,0.01,,2018-01-23 00:49:00,
2018-01-22 17:54:00,34.9,14.0,30.45,WNW,293,1.0,-999.0,41,0.00,,,0.01,,2018-01-23 00:54:00,
2018-01-22 17:59:00,34.5,14.0,30.45,West,270,1.0,-999.0,43,0.00,,,0.01,,2018-01-23 00:59:00,
2018-01-22 18:05:00,34.0,13.0,30.45,WNW,293,0.0,-999.0,43,0.00,,,0.01,,2018-01-23 01:05:00,
2018-01-22 18:10:00,33.2,13.0,30.45,NE,45,2.0,-999.0,44,0.00,,,0.01,,2018-01-23 01:10:00,
2018-01-22 18:16:00,32.9,14.0,30.46,NW,315,3.0,-999.0,45,0.00,,,0.01,,2018-01-23 01:16:00,
2018-01-22 18:21:00,32.4,15.0,30.45,SE,135,1.0,-999.0,49,0.00,,,0.01,,2018-01-23 01:21:00,
2018-01-22 18:27:00,31.6,15.0,30.45,SE,135,1.0,-999.0,50,0.00,,,0.01,,2018-01-23 01:27:00,
2018-01-22 18:32:00,31.2,15.0,30.45,South,180,1.0,-999.0,50,0.00,,,0.01,,2018-01-23 01:32:00,
2018-01-22 18:37:00,30.5,15.0,30.46,ESE,113,0.0,-999.0,51,0.00,,,0.01,,2018-01-23 01:37:00,
2018-01-22 18:43:00,30.1,15.0,30.46,NE,45,1.0,-999.0,53,0.00,,,0.01,,2018-01-23 01:43:00,
2018-01-22 18:48:00,30.1,15.0,30.46,North,0,2.0,-999.0,53,0.00,,,0.01,,2018-01-23 01:48:00,
2018-01-22 18:54:00,30.1,14.0,30.46,ESE,113,1.0,-999.0,51,0.00,,,0.01,,2018-01-23 01:54:00,
2018-01-22 18:59:00,30.3,14.0,30.46,ENE,68,2.0,-999.0,50,0.00,,,0.01,,2018-01-23 01:59:00,
2018-01-22 19:04:00,30.5,14.0,30.46,North,0,2.0,-999.0,50,0.00,,,0.01,,2018-01-23 02:04:00,
2018-01-22 19:10:00,30.5,13.0,30.47,NW,315,4.0,-999.0,49,0.00,,,0.01,,2018-01-23 02:10:00,
2018-01-22 19:15:00,31.1,13.0,30.46,NNW,338,4.0,-999.0,48,0.00,,,0.01,,2018-01-23 02:15:00,
2018-01-22 19:21:00,31.2,12.0,30.46,WNW,293,3.0,-999.0,45,0.00,,,0.01,,2018-01-23 02:21:00,
2018-01-22 19:26:00,31.1,12.0,30.46,NNW,338,2.0,-999.0,45,0.00,,,0.01,,2018-01-23 02:26:00,
2018-01-22 19:42:00,30.3,12.0,30.47,WSW,248,1.0,-999.0,46,0.00,,,0.01,,2018-01-23 02:42:00,
2018-01-22 19:48:00,30.0,12.0,30.46,ESE,113,0.0,-999.0,48,0.00,,,0.01,,2018-01-23 02:48:00,
2018-01-22 19:53:00,29.5,12.0,30.47,West,270,2.0,-999.0,49,0.00,,,0.01,,2018-01-23 02:53:00,
2018-01-22 19:58:00,28.7,12.0,30.47,WNW,293,2.0,-999.0,49,0.00,,,0.01,,2018-01-23 02:58:00,
2018-01-22 20:04:00,28.6,12.0,30.46,ENE,68,1.0,-999.0,50,0.00,,,0.01,,2018-01-23 03:04:00,
2018-01-22 20:09:00,27.9,13.0,30.47,SSE,158,2.0,-999.0,53,0.00,,,0.01,,2018-01-23 03:09:00,
2018-01-22 20:15:00,27.6,13.0,30.47,SE,135,1.0,-999.0,54,0.00,,,0.01,,2018-01-23 03:15:00,
2018-01-22 20:20:00,27.5,13.0,30.47,SSE,158,3.0,-999.0,54,0.00,,,0.01,,2018-01-23 03:20:00,
2018-01-22 20:25:00,27.3,12.0,30.46,SE,135,2.0,-999.0,53,0.00,,,0.01,,2018-01-23 03:25:00,
2018-01-22 20:31:00,27.6,11.0,30.47,NE,45,2.0,-999.0,50,0.00,,,0.01,,2018-01-23 03:31:00,
2018-01-22 20:36:00,27.8,11.0,30.46,NE,45,2.0,-999.0,50,0.00,,,0.01,,2018-01-23 03:36:00,
2018-01-22 20:42:00,28.6,11.0,30.47,NNW,338,5.0,-999.0,48,0.00,,,0.01,,2018-01-23 03:42:00,
2018-01-22 20:58:00,28.6,11.0,30.46,NNE,23,3.0,-999.0,49,0.00,,,0.01,,2018-01-23 03:58:00,
2018-01-22 21:09:00,29.5,12.0,30.47,West,270,2.0,-999.0,48,0.00,,,0.01,,2018-01-23 04:09:00,